FW1294 Weather Reports


time (UTC)temp
C
wind
direction
speed
KPH
gust
KPH
rain 1hr
cm
rain 24hr
cm
rain mn
cm
humidity
%
barometer
mb
20220124100528 0 180 0.0 0.0 0.00 0.00 0.00 90 1011.7
20220124095758 0 315 0.0 0.0 0.00 0.00 0.00 90 1011.7
20220124094908 0 285 0.0 0.0 0.00 0.00 0.00 90 1011.6
20220124093918 0 225 0.0 0.0 0.00 0.00 0.00 90 1011.4
20220124093300 0 360 0.0 0.0 0.00 0.00 0.00 90 1011.4
20220124092529 0 300 0.0 0.0 0.00 0.00 0.00 90 1011.4
20220124092020 0 315 0.0 0.0 0.00 0.00 0.00 90 1011.3
20220124091248 0 315 0.0 0.0 0.00 0.00 0.00 90 1011.1
20220124090530 1 45 0.0 0.0 0.00 0.00 0.00 90 1011.1
20220124085618 1 120 0.0 0.0 0.00 0.00 0.00 90 1011.1
20220124084831 1 135 0.0 0.0 0.00 0.00 0.00 90 1011.1
20220124084147 1 135 0.0 0.0 0.00 0.00 0.00 90 1011.0
20220124083447 1 135 0.0 0.0 0.00 0.00 0.00 90 1011.0
20220124082645 1 225 0.0 0.0 0.00 0.00 0.00 90 1011.0
20220124081919 1 300 0.0 0.0 0.00 0.00 0.00 90 1011.0
20220124081249 1 75 0.0 0.0 0.00 0.00 0.00 90 1011.0
20220124080354 1 360 0.0 0.0 0.00 0.00 0.00 90 1010.9
20220124075358 1 360 0.0 0.0 0.00 0.00 0.00 90 1010.9
20220124074851 1 360 0.0 0.0 0.00 0.00 0.00 90 1010.9
20220124074036 1 360 0.0 0.0 0.00 0.00 0.00 90 1011.0
20220124073136 1 360 0.0 0.0 0.00 0.00 0.00 90 1011.0
20220124072359 1 360 0.0 0.0 0.00 0.00 0.00 90 1011.0
20220124071417 1 360 0.0 0.0 0.00 0.00 0.00 90 1011.0
20220124070648 1 360 0.0 0.0 0.00 0.00 0.00 90 1011.0
20220124065813 1 360 0.0 0.0 0.00 0.00 0.00 90 1010.8
20220124065212 0 360 0.0 0.0 0.00 0.00 0.00 90 1010.9
20220124064324 0 360 0.0 0.0 0.00 0.00 0.00 90 1010.9
20220124063531 0 360 0.0 0.0 0.00 0.00 0.00 90 1010.8
20220124062558 0 360 0.0 0.0 0.00 0.00 0.00 90 1010.8
20220124061709 0 360 0.0 0.0 0.00 0.00 0.00 90 1010.7
20220124060726 0 315 0.0 0.0 0.00 0.00 0.00 90 1010.7
20220124055952 0 315 0.0 0.0 0.00 0.00 0.00 90 1010.7
20220124055330 0 135 0.0 0.0 0.00 0.00 0.00 90 1010.8
20220124054611 0 135 0.0 0.0 0.00 0.00 0.00 90 1010.9
20220124053643 0 30 0.0 0.0 0.00 0.00 0.00 90 1011.1
20220124052722 0 315 0.0 0.0 0.00 0.00 0.00 90 1011.1
20220124052012 0 330 0.0 0.0 0.00 0.00 0.00 90 1011.0
20220124051319 0 285 0.0 0.0 0.00 0.00 0.00 90 1010.6
20220124050642 0 225 0.0 0.0 0.00 0.00 0.00 90 1010.5
20220124050109 0 225 0.0 0.0 0.00 0.00 0.00 90 1010.5
20220124045450 0 225 0.0 0.0 0.00 0.00 6.05 90 1010.4
20220124044721 0 225 0.0 0.0 0.00 0.00 6.05 90 1010.4
20220124044008 1 225 0.0 0.0 0.00 0.00 6.05 90 1010.4
20220124043455 1 225 0.0 0.0 0.00 0.00 6.05 90 1010.4
20220124042849 1 105 0.0 0.0 0.00 0.00 6.05 90 1010.5
20220124041854 1 180 0.0 0.0 0.00 0.00 6.05 89 1010.5
20220124041335 1 180 0.0 0.0 0.00 0.00 6.05 88 1010.5
20220124040633 1 180 0.0 0.0 0.00 0.00 6.05 90 1010.6
20220124040056 1 165 0.0 0.0 0.00 0.00 6.05 90 1010.6
20220124035356 1 180 0.0 0.0 0.00 0.00 6.05 90 1010.5
20220124034406 1 180 0.0 0.0 0.00 0.00 6.05 90 1010.4
20220124033649 1 195 0.0 0.0 0.00 0.00 6.05 90 1010.3
20220124032656 0 135 0.0 0.0 0.00 0.00 6.05 90 1010.4
20220124031757 0 180 0.0 0.0 0.00 0.00 6.05 90 1010.4
20220124031034 0 195 0.0 0.0 0.00 0.00 6.05 90 1010.4
20220124030435 0 180 0.0 0.0 0.00 0.00 6.05 90 1010.2
20220124025655 0 120 0.0 0.0 0.00 0.00 6.05 90 1010.2
20220124024827 0 180 0.0 0.0 0.00 0.00 6.05 90 1010.2
20220124023832 0 315 0.0 0.0 0.00 0.00 6.05 90 1010.1
20220124023159 0 180 0.0 0.0 0.00 0.00 6.05 90 1010.1
20220124022316 0 135 0.0 0.0 0.00 0.00 6.05 90 1010.0
20220124021553 0 135 0.0 0.0 0.00 0.00 6.05 90 1010.1
20220124020800 0 135 0.0 0.0 0.00 0.00 6.05 90 1010.0
20220124020054 0 135 0.0 0.0 0.00 0.00 6.05 90 1010.0
20220124015156 0 135 0.0 0.0 0.00 0.00 6.05 90 1010.1
20220124014205 1 135 0.0 0.0 0.00 0.00 6.05 90 1010.3
20220124013228 1 135 0.0 0.0 0.00 0.00 6.05 90 1010.4
20220124012330 1 135 0.0 0.0 0.00 0.00 6.05 90 1010.4
20220124011750 1 135 0.0 0.0 0.00 0.00 6.05 90 1010.6
20220124010830 1 135 0.0 0.0 0.00 0.00 6.05 90 1010.5
20220124010129 1 135 0.0 0.0 0.00 0.00 6.05 90 1010.6
20220124005351 1 135 0.0 0.0 0.00 0.00 6.05 90 1010.7
20220124004827 1 135 0.0 0.0 0.00 0.00 6.05 90 1010.7
20220124003839 1 135 0.0 0.0 0.00 0.00 6.05 90 1010.8
20220124003206 1 135 0.0 0.0 0.00 0.00 6.05 90 1010.9
20220124002538 2 135 0.0 0.0 0.00 0.00 6.05 87 1010.9
20220124001611 2 135 0.0 0.0 0.00 0.00 6.05 85 1010.9
20220124000747 2 225 0.0 0.0 0.00 0.00 6.05 82 1010.8
20220123235846 2 45 0.0 0.0 0.00 0.00 6.05 82 1010.8
20220123234901 2 135 0.0 0.0 0.00 0.00 6.05 81 1010.7
20220123234359 2 135 0.0 0.0 0.00 0.00 6.05 80 1010.8
20220123233707 2 135 0.0 0.0 0.00 0.00 6.05 80 1010.9
20220123232909 2 135 0.0 0.0 0.00 0.00 6.05 80 1010.8
20220123232233 3 135 0.0 0.0 0.00 0.00 6.05 78 1010.9
20220123231611 3 135 0.0 0.0 0.00 0.00 6.05 79 1011.0
20220123230816 3 135 0.0 0.0 0.00 0.00 6.05 75 1010.9
20220123230248 4 135 0.0 0.0 0.00 0.00 6.05 70 1010.9
20220123225535 4 135 0.0 0.0 0.00 0.00 6.05 68 1010.9
20220123224944 5 135 0.0 0.0 0.00 0.00 6.05 66 1010.8
20220123224123 5 225 0.0 0.0 0.00 0.00 6.05 63 1010.8
20220123223150 5 225 0.0 0.0 0.00 0.00 6.05 61 1010.8
20220123222520 6 225 0.0 0.0 0.00 0.00 6.05 60 1010.9
20220123221752 6 135 0.0 0.0 0.00 0.00 6.05 60 1010.8
20220123220945 6 180 0.0 0.0 0.00 0.00 6.05 57 1010.7
20220123220014 6 210 0.0 0.0 0.00 0.00 6.05 57 1010.8
20220123215329 6 165 0.0 0.0 0.00 0.00 6.05 56 1010.7
20220123214604 7 210 0.0 0.0 0.00 0.00 6.05 55 1010.8
20220123214043 7 150 0.0 0.0 0.00 0.00 6.05 57 1010.7
20220123213434 7 225 0.0 0.0 0.00 0.00 6.05 53 1010.7
20220123212806 7 195 0.0 0.0 0.00 0.00 6.05 53 1010.6
20220123212101 7 225 0.0 0.0 0.00 0.00 6.05 53 1010.3
20220123211322 8 210 0.0 0.0 0.00 0.00 6.05 50 1010.5
20220123210501 8 195 0.0 0.0 0.00 0.00 6.05 49 1010.6
20220123205821 8 240 0.0 0.0 0.00 0.00 6.05 50 1010.8
20220123204933 8 195 0.0 0.0 0.00 0.00 6.05 50 1010.8
20220123204342 8 195 0.0 0.0 0.00 0.00 6.05 50 1010.9
20220123203836 7 195 0.0 0.0 0.00 0.00 6.05 51 1010.9
20220123202923 7 150 0.0 0.0 0.00 0.00 6.05 51 1011.1
20220123202330 7 255 0.0 0.0 0.00 0.00 6.05 51 1010.8
20220123201544 8 210 0.0 0.0 0.00 0.00 6.05 51 1011.1
20220123200630 7 240 0.0 0.0 0.00 0.00 6.05 54 1011.0
20220123200053 7 165 0.0 0.0 0.00 0.00 6.05 53 1011.3
20220123195145 7 150 0.0 0.0 0.00 0.00 6.05 56 1011.4
20220123194433 7 165 0.0 0.0 0.00 0.00 6.05 56 1011.4
20220123193506 6 225 0.0 0.0 0.00 0.00 6.05 58 1011.5
20220123193000 6 210 0.0 0.0 0.00 0.00 6.05 58 1011.8
20220123192427 6 150 0.0 0.0 0.00 0.00 6.05 59 1011.9
20220123191654 6 195 0.0 0.0 0.00 0.00 6.05 61 1012.0
20220123191141 6 180 0.0 0.0 0.00 0.00 6.05 59 1012.1
20220123190339 6 225 0.0 0.0 0.00 0.00 6.05 59 1012.2
20220123185705 6 195 0.0 0.0 0.00 0.00 6.05 60 1012.3
20220123184713 6 120 0.0 0.0 0.00 0.00 6.05 60 1012.6
20220123184108 5 195 0.0 0.0 0.00 0.00 6.05 60 1012.5
20220123183346 5 225 0.0 0.0 0.00 0.00 6.05 60 1012.6
20220123182613 5 195 0.0 0.0 0.00 0.00 6.05 60 1012.8
20220123181640 6 165 0.0 0.0 0.00 0.00 6.05 59 1013.0
20220123181114 5 225 0.0 0.0 0.00 0.00 6.05 60 1013.1
20220123180405 5 240 0.0 0.0 0.00 0.00 6.05 61 1012.9
20220123175739 5 225 0.0 0.0 0.00 0.00 6.05 58 1013.2
20220123174854 5 240 0.0 0.0 0.00 0.00 6.05 60 1013.4
20220123174047 5 180 0.0 0.0 0.00 0.00 6.05 57 1013.6
20220123173112 4 210 0.0 0.0 0.00 0.00 6.05 58 1014.3
20220123172558 4 180 0.0 0.0 0.00 0.00 6.05 61 1014.5
20220123171935 3 150 0.0 0.0 0.00 0.00 6.05 62 1014.8
20220123171039 3 180 0.0 0.0 0.00 0.00 6.05 60 1015.0
20220123170428 3 240 0.0 0.0 0.00 0.00 6.05 60 1015.3
20220123165915 3 210 0.0 0.0 0.00 0.00 6.05 62 1015.5
20220123165241 4 180 0.0 0.0 0.00 0.00 6.05 59 1015.5
20220123164334 3 195 0.0 0.0 0.00 0.00 5.97 61 1015.8
20220123163617 3 210 0.0 0.0 0.00 0.00 5.97 61 1015.8
20220123162715 3 180 0.0 0.0 0.00 0.00 5.97 59 1016.1
20220123162130 4 180 0.0 0.0 0.00 0.00 5.97 61 1016.2
20220123161239 3 270 0.0 0.0 0.00 0.00 5.97 60 1016.4
20220123160552 3 210 0.0 0.0 0.00 0.00 5.92 60 1016.5
20220123160051 3 240 0.0 0.0 0.00 0.00 5.92 59 1016.4
20220123155109 3 195 0.0 0.0 0.00 0.00 5.92 59 1016.7
20220123154213 3 195 0.0 0.0 0.00 0.00 5.87 56 1016.8
20220123153546 4 180 0.0 0.0 0.00 0.00 5.87 55 1016.9
20220123152925 4 255 0.0 0.0 0.00 0.00 5.82 60 1017.0
20220123151924 3 225 0.0 0.0 0.00 0.00 5.77 54 1017.1
20220123151245 3 180 0.0 0.0 0.00 0.00 5.77 56 1017.1
20220123150707 3 195 0.0 0.0 0.00 0.00 5.69 55 1017.1
20220123150116 2 240 0.0 0.0 0.00 0.00 5.69 59 1017.3
20220123145517 2 180 0.0 0.0 0.00 0.00 5.69 55 1017.4
20220123144641 2 210 0.0 0.0 0.00 0.00 1.07 59 1017.3
20220123143844 1 195 0.0 0.0 0.00 0.00 0.00 59 1017.4
20220123143211 1 225 0.0 0.0 0.00 0.00 0.00 59 1017.4
20220123142543 1 210 0.0 0.0 0.00 0.00 0.00 63 1017.4
20220123141605 0 180 0.0 0.0 0.00 0.00 0.00 68 1017.6
20220123140812 1 165 0.0 0.0 0.00 0.00 0.00 85 1018.2
20220123135917 3 165 0.0 0.0 0.00 0.00 0.00 90 1018.1
20220123135255 4 90 0.0 0.0 0.00 0.00 0.00 90 1018.4
20220123134322 5 30 0.0 0.0 0.00 0.00 0.00 90 1018.5
20220123133516 6 90 0.0 0.0 0.00 0.00 0.00 90 1018.6
20220123132913 6 135 0.0 0.0 0.00 0.00 0.00 90 1018.7
20220123132129 6 135 0.0 0.0 0.00 0.00 0.00 90 1018.7
20220123131326 6 135 0.0 0.0 0.00 0.00 0.00 90 1018.8
20220123130719 7 135 0.0 0.0 0.00 0.00 0.00 90 1018.9
20220123125803 7 135 0.0 0.0 0.00 0.00 0.00 90 1019.0
20220123125245 7 135 0.0 0.0 0.00 0.00 0.00 90 1019.0
20220123124611 7 135 0.0 0.0 0.00 0.00 0.00 90 1019.0
20220123123733 7 135 0.0 0.0 0.00 0.00 0.00 90 1018.9
20220123123229 7 135 0.0 0.0 0.00 0.00 0.00 90 1018.9
20220123122412 7 135 0.0 0.0 0.00 0.00 0.00 90 1018.9
20220123121548 7 120 0.0 0.0 0.00 0.00 0.00 90 1018.7
20220123120615 7 0 0.0 0.0 0.00 0.00 0.00 90 1018.8
20220123115913 7 330 0.0 0.0 0.00 0.00 0.00 90 1018.7
20220123115155 7 0 0.0 0.0 0.00 0.00 0.00 90 1018.6
20220123114214 7 165 0.0 0.0 0.00 0.00 0.00 90 1018.6
20220123113314 7 180 0.0 0.0 0.00 0.00 0.00 90 1018.7
20220123112706 7 45 0.0 0.0 0.00 0.00 0.00 90 1018.7
20220123111826 7 150 0.0 0.0 0.00 0.00 0.00 90 1018.6
20220123110825 7 135 0.0 0.0 0.00 0.00 0.00 90 1018.7
20220123105928 7 135 0.0 0.0 0.00 0.00 0.00 90 1018.8
20220123104953 7 135 0.0 0.0 0.00 0.00 0.00 90 1018.8
20220123104052 7 135 0.0 0.0 0.00 0.00 0.00 90 1018.7
20220123103204 7 135 0.0 0.0 0.00 0.00 0.00 90 1018.8
20220123102600 7 135 0.0 0.0 0.00 0.00 0.00 90 1018.8
20220123101932 7 135 0.0 0.0 0.00 0.00 0.00 90 1018.8